Weather History for Somerville, NJ

Change the Weather History Date:

Tuesday, July 2, 2013

  Actual Average Record
Temperature  
Mean Temperature 78 °F -  
Max Temperature 84 °F 83 °F 98 °F (1963)
Min Temperature 73 °F 59 °F 46 °F (2007)
Cooling Degree Days 14    
Growing Degree Days 28 (Base 50)    
Moisture  
Dew Point 73 °F    
Average Humidity 85    
Maximum Humidity 94    
Minimum Humidity 69    
Precipitation  
Precipitation 0.00 in - - ()
Sea Level Pressure  
Sea Level Pressure 30.08 in    
Wind  
Wind Speed 4 mph (South)    
Max Wind Speed 10 mph    
Max Gust Speed -    
Visibility 9 miles    
Events Rain    
Averages and records for this station are not official NWS values.
T = Trace of Precipitation, MM = Missing Value Source: NWS Daily Summary

Daily Weather History Graph

Daily Weather History Graph

Search for Another Location

Airport:

Trip Planner

Search our weather history database for the weather conditions in past years. The results will help you decide how hot, cold, wet, or windy it might be!

Date:

Astronomy

Jul. 02, 2013 Rise Set
Actual Time 5:32 AM EDT 8:33 PM EDT
Civil Twilight 4:59 AM EDT 9:06 PM EDT
Nautical Twilight 4:16 AM EDT 9:48 PM EDT
Astronomical Twilight 3:27 AM EDT 10:37 PM EDT
Moon 1:34 AM EDT (7/2) 3:44 PM EDT (7/2)
Length of Visible Light 16h 07m
Length of Day
15h 01m
Waning Crescent, 26% of the Moon is Illuminated
Jul 2
Waning Crescent
Jul 8
New
Jul 15
First Quarter
Jul 22
Full
Jul 29
Last Quarter

Hourly Weather History & Observations

Time (EDT) Temp. Heat Index Dew Point Humidity Pressure Visibility Wind Dir Wind Speed Gust Speed Precip Events Conditions
12:25 AM 75.2 °F - 71.6 °F 89% 30.03 in 10.0 mi Variable 4.6 mph - N/A   Overcast
12:38 AM 75.2 °F - 71.6 °F 89% 30.03 in 10.0 mi SSE 4.6 mph - N/A   Overcast
12:53 AM 75.0 °F - 72.0 °F 90% 30.03 in 10.0 mi SE 4.6 mph - N/A   Overcast
1:53 AM 73.9 °F - 72.0 °F 93% 30.02 in 10.0 mi Calm Calm - N/A   Overcast
2:53 AM 75.0 °F - 72.0 °F 90% 30.03 in 10.0 mi SSE 4.6 mph - N/A   Overcast
3:22 AM 75.2 °F - 71.6 °F 89% 30.02 in 10.0 mi SSE 4.6 mph - 0.00 in   Overcast
3:53 AM 73.9 °F - 72.0 °F 93% 30.03 in 10.0 mi SSE 4.6 mph - 0.00 in   Overcast
4:41 AM 73.4 °F - 71.6 °F 94% 30.04 in 10.0 mi SSE 4.6 mph - 0.00 in Rain Light Rain
4:53 AM 73.9 °F - 72.0 °F 93% 30.04 in 10.0 mi Variable 3.5 mph - 0.00 in Rain Light Rain
5:53 AM 73.9 °F - 72.0 °F 93% 30.05 in 8.0 mi Calm Calm - 0.00 in   Overcast
6:03 AM 73.4 °F - 71.6 °F 94% 30.06 in 7.0 mi Calm Calm - N/A   Overcast
6:44 AM 73.4 °F - 71.6 °F 94% 30.07 in 9.0 mi SE 3.5 mph - N/A   Overcast
6:53 AM 73.9 °F - 72.0 °F 93% 30.06 in 10.0 mi Calm Calm - N/A   Mostly Cloudy
7:07 AM 75.2 °F - 73.4 °F 94% 30.08 in 10.0 mi South 3.5 mph - N/A   Mostly Cloudy
7:53 AM 75.0 °F - 72.0 °F 90% 30.08 in 10.0 mi SSE 3.5 mph - N/A   Overcast
8:10 AM 75.2 °F - 73.4 °F 94% 30.09 in 10.0 mi SSE 3.5 mph - N/A   Overcast
8:53 AM 75.9 °F - 73.0 °F 91% 30.10 in 10.0 mi Variable 5.8 mph - 0.00 in   Overcast
9:14 AM 77.0 °F - 73.4 °F 89% 30.10 in 10.0 mi SSE 4.6 mph - N/A   Overcast
10:12 AM 78.8 °F - 73.4 °F 83% 30.10 in 10.0 mi South 5.8 mph - N/A   Mostly Cloudy
10:53 AM 79.0 °F - 73.0 °F 82% 30.10 in 10.0 mi South 8.1 mph - N/A   Mostly Cloudy
11:40 AM 78.8 °F - 73.4 °F 83% 30.11 in 10.0 mi South 10.4 mph - N/A   Mostly Cloudy
11:53 AM 79.0 °F - 73.0 °F 82% 30.11 in 10.0 mi South 10.4 mph - N/A   Mostly Cloudy
12:04 PM 78.8 °F - 73.4 °F 83% 30.11 in 10.0 mi South 8.1 mph - N/A   Mostly Cloudy
12:46 PM 80.6 °F 85.4 °F 73.4 °F 79% 30.11 in 10.0 mi South 8.1 mph - 0.00 in   Mostly Cloudy
12:53 PM 80.1 °F 84.2 °F 73.0 °F 79% 30.10 in 10.0 mi South 5.8 mph - 0.00 in   Mostly Cloudy
1:42 PM 82.4 °F 88.2 °F 73.4 °F 74% 30.10 in 10.0 mi South 8.1 mph - N/A   Mostly Cloudy
1:53 PM 82.9 °F 89.4 °F 73.9 °F 74% 30.09 in 10.0 mi South 10.4 mph - N/A   Mostly Cloudy
2:09 PM 82.4 °F 88.2 °F 73.4 °F 74% 30.09 in 10.0 mi South 6.9 mph - N/A   Mostly Cloudy
2:21 PM 82.4 °F 88.2 °F 73.4 °F 74% 30.09 in 10.0 mi South 5.8 mph - N/A   Overcast
2:40 PM 78.8 °F - 73.4 °F 83% 30.09 in 2.0 mi Calm Calm - 0.00 in Rain Light Rain
2:49 PM 78.8 °F - 75.2 °F 89% 30.09 in 4.0 mi Calm Calm - 0.00 in Rain Light Rain
2:53 PM 78.1 °F - 75.0 °F 90% 30.09 in 4.0 mi South 5.8 mph - 0.00 in Rain Light Rain
3:53 PM 82.9 °F 89.4 °F 73.9 °F 74% 30.08 in 10.0 mi SSW 3.5 mph - 0.00 in   Scattered Clouds
4:53 PM 84.0 °F 90.2 °F 73.0 °F 69% 30.08 in 10.0 mi Variable 5.8 mph - N/A   Scattered Clouds
5:53 PM 82.0 °F 87.4 °F 73.0 °F 74% 30.09 in 10.0 mi South 6.9 mph - N/A   Clear
6:53 PM 81.0 °F 86.2 °F 73.9 °F 79% 30.11 in 10.0 mi South 3.5 mph - 0.00 in Rain Light Rain
7:53 PM 80.1 °F 83.6 °F 71.1 °F 74% 30.12 in 10.0 mi South 6.9 mph - 0.00 in   Mostly Cloudy
8:53 PM 77.0 °F - 72.0 °F 84% 30.14 in 10.0 mi South 5.8 mph - N/A   Partly Cloudy
9:53 PM 75.9 °F - 70.0 °F 82% 30.16 in 10.0 mi South 4.6 mph - N/A   Clear
10:53 PM 75.0 °F - 70.0 °F 84% 30.17 in 10.0 mi South 4.6 mph - N/A   Partly Cloudy
11:53 PM 73.9 °F - 70.0 °F 87% 30.16 in 10.0 mi Calm Calm - N/A   Overcast